DLH901 EGLL-EDDF

Flight info

Callsign DLH901
Flight time 1h 14m
Altitude 35000
Route BPK Q295 MATCH DCT REDFA DCT TACHA DCT NOLRU DCT DIXAT DIXAT1C
Aircraft A320/M-SDE3FGHIRWY/LB1

Departure

Time 2026-05-07 19:57
Airport London Heathrow Airport (EGLL)

Arrival

Time 2026-05-07 21:11
Airport Frankfurt Main Airport (EDDF)
Time Latitude Longitude Altitude Speed Heading
2026-05-07 19:12 51.47036 -0.44672 87 ft 0 kts 270°
2026-05-07 19:33 51.47036 -0.44661 87 ft 2 kts 270°
2026-05-07 19:34 51.47038 -0.44634 87 ft 2 kts 264°
2026-05-07 19:34 51.47039 -0.44607 87 ft 2 kts 270°
2026-05-07 19:34 51.47040 -0.44578 87 ft 3 kts 244°
2026-05-07 19:34 51.47050 -0.44556 91 ft 3 kts 209°
2026-05-07 19:35 51.47058 -0.44549 91 ft 0 kts 211°
2026-05-07 19:35 51.47036 -0.44558 88 ft 6 kts 186°
2026-05-07 19:35 51.47030 -0.44558 90 ft 0 kts 181°
2026-05-07 19:38 51.46997 -0.44559 87 ft 12 kts 181°
2026-05-07 19:38 51.46883 -0.44558 87 ft 18 kts 179°
2026-05-07 19:39 51.46766 -0.44555 90 ft 11 kts 181°
2026-05-07 19:39 51.46686 -0.44560 89 ft 8 kts 196°
2026-05-07 19:39 51.46665 -0.44629 88 ft 7 kts 266°
2026-05-07 19:39 51.46664 -0.44776 87 ft 22 kts 270°
2026-05-07 19:40 51.46662 -0.45026 87 ft 23 kts 269°
2026-05-07 19:40 51.46662 -0.45287 87 ft 19 kts 270°
2026-05-07 19:40 51.46662 -0.45491 87 ft 18 kts 270°
2026-05-07 19:40 51.46661 -0.45680 87 ft 16 kts 270°
2026-05-07 19:41 51.46661 -0.45862 87 ft 19 kts 270°
2026-05-07 19:41 51.46660 -0.46108 91 ft 25 kts 269°
2026-05-07 19:41 51.46658 -0.46389 88 ft 24 kts 270°
2026-05-07 19:41 51.46657 -0.46662 87 ft 25 kts 270°
2026-05-07 19:42 51.46656 -0.46957 88 ft 27 kts 270°
2026-05-07 19:42 51.46656 -0.47223 87 ft 23 kts 270°
2026-05-07 19:42 51.46655 -0.47483 87 ft 24 kts 270°
2026-05-07 19:42 51.46654 -0.47759 87 ft 26 kts 270°
2026-05-07 19:43 51.46653 -0.48002 87 ft 17 kts 270°
2026-05-07 19:43 51.46653 -0.48105 87 ft 0 kts 270°
2026-05-07 19:46 51.46653 -0.48111 87 ft 4 kts 270°
2026-05-07 19:46 51.46652 -0.48236 87 ft 12 kts 269°
2026-05-07 19:47 51.46652 -0.48377 87 ft 14 kts 269°
2026-05-07 19:47 51.46639 -0.48461 90 ft 8 kts 219°
2026-05-07 19:47 51.46596 -0.48470 89 ft 0 kts 180°
2026-05-07 19:49 51.46593 -0.48470 89 ft 0 kts 179°
2026-05-07 19:54 51.46572 -0.48469 88 ft 11 kts 179°
2026-05-07 19:55 51.46501 -0.48469 89 ft 7 kts 178°
2026-05-07 19:55 51.46476 -0.48404 89 ft 8 kts 84°
2026-05-07 19:55 51.46477 -0.48373 90 ft 0 kts 89°
2026-05-07 19:56 51.46477 -0.48357 89 ft 8 kts 89°
2026-05-07 19:56 51.46478 -0.47894 87 ft 80 kts 89°
2026-05-07 19:56 51.46482 -0.46635 89 ft 141 kts 90°
2026-05-07 19:56 51.46467 -0.44887 492 ft 160 kts 91°
2026-05-07 19:57 51.46493 -0.43089 1323 ft 162 kts 90°
2026-05-07 19:57 51.46587 -0.41285 2069 ft 164 kts 77°
2026-05-07 19:57 51.47132 -0.39723 2845 ft 163 kts 44°
2026-05-07 19:57 51.47965 -0.38568 3643 ft 153 kts 48°
2026-05-07 19:58 51.48643 -0.37328 4468 ft 140 kts 52°
2026-05-07 19:58 51.49231 -0.36167 5308 ft 134 kts 52°
2026-05-07 19:58 51.49808 -0.34964 6117 ft 133 kts 53°
2026-05-07 19:58 51.50415 -0.33653 6538 ft 173 kts 52°
2026-05-07 19:59 51.51254 -0.31999 6487 ft 194 kts 50°
2026-05-07 19:59 51.52065 -0.30347 6343 ft 186 kts 58°
2026-05-07 19:59 51.52615 -0.28412 5879 ft 198 kts 75°
2026-05-07 19:59 51.52801 -0.26055 6031 ft 231 kts 86°
2026-05-07 20:00 51.53151 -0.23323 6043 ft 263 kts 69°
2026-05-07 20:00 51.54040 -0.20725 6048 ft 269 kts 48°
2026-05-07 20:00 51.55604 -0.19131 6054 ft 269 kts 18°
2026-05-07 20:00 51.57412 -0.18290 6058 ft 271 kts 14°
2026-05-07 20:01 51.59241 -0.17566 6029 ft 271 kts 13°
2026-05-07 20:01 51.61072 -0.16855 6017 ft 271 kts 14°
2026-05-07 20:01 51.62893 -0.16120 6011 ft 271 kts 14°
2026-05-07 20:01 51.64720 -0.15343 6008 ft 271 kts 15°
2026-05-07 20:02 51.66517 -0.14550 6008 ft 271 kts 15°
2026-05-07 20:02 51.68333 -0.13728 6003 ft 271 kts 15°
2026-05-07 20:02 51.70152 -0.12895 6173 ft 275 kts 15°
2026-05-07 20:02 51.71994 -0.12048 7180 ft 276 kts 15°
2026-05-07 20:03 51.73789 -0.10908 8093 ft 283 kts 34°
2026-05-07 20:03 51.75056 -0.08484 8938 ft 290 kts 68°
2026-05-07 20:03 51.75522 -0.05301 9864 ft 294 kts 83°
2026-05-07 20:03 51.75805 -0.02025 10726 ft 297 kts 84°
2026-05-07 20:04 51.76060 0.01303 11591 ft 301 kts 85°
2026-05-07 20:04 51.76313 0.04685 12496 ft 304 kts 85°
2026-05-07 20:04 51.76573 0.08104 13346 ft 308 kts 85°
2026-05-07 20:04 51.76840 0.11555 14164 ft 312 kts 84°
2026-05-07 20:05 51.77114 0.15041 14897 ft 316 kts 84°
2026-05-07 20:05 51.77397 0.18599 15636 ft 320 kts 84°
2026-05-07 20:05 51.77687 0.22193 16367 ft 325 kts 84°
2026-05-07 20:05 51.78050 0.25818 17097 ft 329 kts 78°
2026-05-07 20:06 51.78623 0.29416 17817 ft 334 kts 76°
2026-05-07 20:06 51.79217 0.33083 18425 ft 342 kts 76°
2026-05-07 20:06 51.79828 0.36900 18654 ft 359 kts 76°
2026-05-07 20:06 51.80458 0.40860 19159 ft 366 kts 76°
2026-05-07 20:07 51.81102 0.44913 19413 ft 382 kts 76°
2026-05-07 20:07 51.81779 0.49186 19529 ft 400 kts 76°
2026-05-07 20:07 51.82482 0.53632 19671 ft 417 kts 76°
2026-05-07 20:07 51.83211 0.58249 19790 ft 431 kts 76°
2026-05-07 20:08 51.83958 0.63013 19918 ft 444 kts 76°
2026-05-07 20:08 51.84726 0.67929 20078 ft 455 kts 76°
2026-05-07 20:08 51.85506 0.72925 20396 ft 460 kts 76°
2026-05-07 20:08 51.86292 0.77968 20780 ft 463 kts 76°
2026-05-07 20:09 51.87082 0.83037 21180 ft 466 kts 76°
2026-05-07 20:09 51.87874 0.88139 21571 ft 469 kts 76°
2026-05-07 20:09 51.88669 0.93283 21950 ft 472 kts 76°
2026-05-07 20:10 51.90259 1.03643 22679 ft 477 kts 76°
2026-05-07 20:10 51.91056 1.08874 23033 ft 480 kts 76°
2026-05-07 20:10 51.91853 1.14130 23381 ft 482 kts 76°
2026-05-07 20:10 51.92657 1.19422 23731 ft 485 kts 76°
2026-05-07 20:11 51.93465 1.24751 24021 ft 487 kts 76°
2026-05-07 20:11 51.94274 1.30111 24310 ft 489 kts 76°
2026-05-07 20:11 51.95083 1.35483 24596 ft 491 kts 76°
2026-05-07 20:11 51.95894 1.40875 24875 ft 493 kts 76°
2026-05-07 20:12 51.96704 1.46292 25146 ft 495 kts 76°
2026-05-07 20:12 51.97509 1.51727 25417 ft 497 kts 77°
2026-05-07 20:12 51.98315 1.57203 25686 ft 499 kts 77°
2026-05-07 20:12 51.99112 1.62620 25947 ft 501 kts 77°
2026-05-07 20:13 51.99923 1.68129 26222 ft 503 kts 77°
2026-05-07 20:13 52.00735 1.73660 26493 ft 505 kts 77°
2026-05-07 20:13 52.01550 1.79216 26809 ft 506 kts 77°
2026-05-07 20:13 52.02363 1.84781 27145 ft 506 kts 77°
2026-05-07 20:14 52.03172 1.90349 27536 ft 506 kts 77°
2026-05-07 20:14 52.03972 1.95900 27921 ft 505 kts 77°
2026-05-07 20:14 52.04503 1.99597 28183 ft 505 kts 77°
2026-05-07 20:14 52.05299 2.05143 28602 ft 504 kts 77°
2026-05-07 20:15 52.06094 2.10702 29021 ft 504 kts 77°
2026-05-07 20:15 52.06885 2.16231 29433 ft 503 kts 77°
2026-05-07 20:15 52.07674 2.21772 29852 ft 502 kts 77°
2026-05-07 20:15 52.08467 2.27384 30282 ft 501 kts 77°
2026-05-07 20:16 52.09233 2.32829 30641 ft 500 kts 77°
2026-05-07 20:16 52.10015 2.38415 31005 ft 500 kts 77°
2026-05-07 20:16 52.10772 2.43851 31360 ft 499 kts 77°
2026-05-07 20:16 52.11544 2.49354 31724 ft 498 kts 77°
2026-05-07 20:17 52.12420 2.54792 32096 ft 497 kts 74°
2026-05-07 20:17 52.13417 2.60188 32461 ft 497 kts 72°
2026-05-07 20:17 52.14491 2.65550 32829 ft 496 kts 71°
2026-05-07 20:17 52.15589 2.70871 33196 ft 495 kts 71°
2026-05-07 20:18 52.16672 2.76180 33562 ft 495 kts 72°
2026-05-07 20:18 52.17727 2.81524 33919 ft 494 kts 72°
2026-05-07 20:18 52.18743 2.86863 34260 ft 493 kts 73°
2026-05-07 20:18 52.19736 2.92210 34563 ft 493 kts 73°
2026-05-07 20:19 52.20718 2.97560 34864 ft 493 kts 73°
2026-05-07 20:19 52.21700 3.02910 35068 ft 492 kts 73°
2026-05-07 20:19 52.22683 3.08251 35106 ft 490 kts 73°
2026-05-07 20:20 52.24503 3.18936 35118 ft 488 kts 82°
2026-05-07 20:20 52.24681 3.24452 35102 ft 486 kts 95°
2026-05-07 20:20 52.24160 3.29791 35107 ft 483 kts 107°
2026-05-07 20:21 52.21824 3.40037 35112 ft 482 kts 113°
2026-05-07 20:21 52.19375 3.50225 35101 ft 482 kts 113°
2026-05-07 20:22 52.16923 3.60400 35104 ft 482 kts 113°
2026-05-07 20:22 52.14476 3.70547 35101 ft 482 kts 113°
2026-05-07 20:23 52.12006 3.80701 35100 ft 482 kts 113°
2026-05-07 20:23 52.09531 3.90853 35097 ft 482 kts 113°
2026-05-07 20:24 52.07054 4.00982 35089 ft 482 kts 113°
2026-05-07 20:24 52.04593 4.10963 35095 ft 469 kts 114°
2026-05-07 20:25 52.02170 4.20732 35087 ft 464 kts 114°
2026-05-07 20:25 51.99749 4.30446 35084 ft 464 kts 114°
2026-05-07 20:26 51.97328 4.40142 35082 ft 464 kts 114°
2026-05-07 20:26 51.94902 4.49833 35082 ft 464 kts 114°
2026-05-07 20:27 51.92473 4.59513 35080 ft 463 kts 114°
2026-05-07 20:27 51.90033 4.69163 35079 ft 463 kts 114°
2026-05-07 20:28 51.87577 4.78811 35079 ft 463 kts 114°
2026-05-07 20:28 51.85112 4.88436 35080 ft 463 kts 114°
2026-05-07 20:29 51.82666 4.97987 35079 ft 463 kts 114°
2026-05-07 20:29 51.80199 5.07609 35078 ft 463 kts 114°
2026-05-07 20:30 51.77719 5.17213 35078 ft 463 kts 114°
2026-05-07 20:30 51.75224 5.26805 35081 ft 463 kts 114°
2026-05-07 20:31 51.72730 5.36367 35074 ft 463 kts 114°
2026-05-07 20:31 51.70227 5.45932 35074 ft 463 kts 114°
2026-05-07 20:32 51.67717 5.55483 35073 ft 463 kts 114°
2026-05-07 20:32 51.65201 5.65023 35072 ft 463 kts 115°
2026-05-07 20:33 51.62674 5.74578 35071 ft 463 kts 115°
2026-05-07 20:33 51.60145 5.84091 35072 ft 463 kts 115°
2026-05-07 20:34 51.57613 5.93548 35072 ft 463 kts 115°
2026-05-07 20:34 51.55060 6.03051 35070 ft 463 kts 115°
2026-05-07 20:35 51.52505 6.12551 35070 ft 463 kts 115°
2026-05-07 20:35 51.49938 6.22029 35071 ft 463 kts 115°
2026-05-07 20:36 51.47506 6.31605 35073 ft 464 kts 112°
2026-05-07 20:36 51.45217 6.41211 34971 ft 455 kts 112°
2026-05-07 20:36 51.44090 6.45931 34720 ft 449 kts 112°
2026-05-07 20:37 51.42961 6.50589 34457 ft 448 kts 113°
2026-05-07 20:37 51.41824 6.55227 33943 ft 447 kts 113°
2026-05-07 20:37 51.40679 6.59842 33317 ft 446 kts 113°
2026-05-07 20:37 51.39522 6.64461 32731 ft 447 kts 113°
2026-05-07 20:38 51.38359 6.69095 32151 ft 448 kts 113°
2026-05-07 20:38 51.37201 6.73715 31695 ft 449 kts 113°
2026-05-07 20:38 51.36049 6.78303 31266 ft 450 kts 113°
2026-05-07 20:38 51.34886 6.82939 30833 ft 451 kts 113°
2026-05-07 20:39 51.33716 6.87606 30406 ft 452 kts 113°
2026-05-07 20:39 51.32543 6.92272 29951 ft 453 kts 113°
2026-05-07 20:39 51.31365 6.96948 29458 ft 453 kts 113°
2026-05-07 20:39 51.30183 7.01629 28975 ft 455 kts 113°
2026-05-07 20:40 51.28939 7.06294 28496 ft 455 kts 118°
2026-05-07 20:40 51.27312 7.10612 28030 ft 454 kts 127°
2026-05-07 20:40 51.25271 7.14440 27573 ft 453 kts 137°
2026-05-07 20:40 51.22867 7.17706 27118 ft 452 kts 146°
2026-05-07 20:41 51.20214 7.20268 26677 ft 451 kts 155°
2026-05-07 20:41 51.17403 7.22479 26235 ft 452 kts 155°
2026-05-07 20:41 51.14569 7.24709 25801 ft 454 kts 155°
2026-05-07 20:41 51.11739 7.26944 25369 ft 455 kts 155°
2026-05-07 20:42 51.08913 7.29211 25089 ft 456 kts 154°
2026-05-07 20:42 51.06088 7.31532 25080 ft 456 kts 154°
2026-05-07 20:42 51.03272 7.33872 24989 ft 457 kts 154°
2026-05-07 20:42 51.00465 7.36214 24739 ft 455 kts 154°
2026-05-07 20:43 50.97657 7.38552 24425 ft 454 kts 154°
2026-05-07 20:43 50.94868 7.40870 23794 ft 450 kts 154°
2026-05-07 20:43 50.92115 7.43147 23107 ft 445 kts 154°
2026-05-07 20:43 50.89375 7.45393 22499 ft 441 kts 154°
2026-05-07 20:44 50.86654 7.47613 21886 ft 438 kts 154°
2026-05-07 20:44 50.83960 7.49810 21285 ft 434 kts 154°
2026-05-07 20:44 50.81295 7.51981 20694 ft 430 kts 154°
2026-05-07 20:44 50.78643 7.54141 20090 ft 426 kts 154°
2026-05-07 20:45 50.76016 7.56279 19498 ft 422 kts 154°
2026-05-07 20:45 50.73414 7.58394 18921 ft 419 kts 154°
2026-05-07 20:45 50.70865 7.60469 18335 ft 416 kts 154°
2026-05-07 20:45 50.68268 7.62576 17739 ft 412 kts 154°
2026-05-07 20:46 50.65755 7.64613 17260 ft 410 kts 154°
2026-05-07 20:46 50.63202 7.66677 16757 ft 407 kts 154°
2026-05-07 20:46 50.60690 7.68703 16266 ft 404 kts 154°
2026-05-07 20:46 50.58233 7.70681 15799 ft 400 kts 154°
2026-05-07 20:47 50.55723 7.72700 15350 ft 398 kts 154°
2026-05-07 20:47 50.53298 7.74654 14897 ft 395 kts 154°
2026-05-07 20:47 50.50859 7.76615 14445 ft 393 kts 154°
2026-05-07 20:47 50.48430 7.78566 14012 ft 390 kts 154°
2026-05-07 20:48 50.46021 7.80501 13541 ft 388 kts 154°
2026-05-07 20:48 50.43654 7.82506 13089 ft 386 kts 148°
2026-05-07 20:48 50.41512 7.85013 12889 ft 385 kts 142°
2026-05-07 20:48 50.39418 7.87633 12806 ft 385 kts 142°
2026-05-07 20:49 50.37321 7.90225 12711 ft 384 kts 143°
2026-05-07 20:49 50.35222 7.92813 12612 ft 384 kts 142°
2026-05-07 20:49 50.33144 7.95377 12475 ft 371 kts 142°
2026-05-07 20:49 50.31164 7.97815 12344 ft 354 kts 143°
2026-05-07 20:50 50.29269 8.00148 12190 ft 340 kts 142°
2026-05-07 20:50 50.27430 8.02418 12036 ft 336 kts 142°
2026-05-07 20:50 50.25598 8.04686 11954 ft 335 kts 142°
2026-05-07 20:50 50.23775 8.06966 11883 ft 335 kts 142°
2026-05-07 20:51 50.21964 8.09246 11807 ft 335 kts 142°
2026-05-07 20:51 50.20152 8.11539 11730 ft 335 kts 142°
2026-05-07 20:51 50.18351 8.13821 11658 ft 334 kts 142°
2026-05-07 20:51 50.16545 8.16104 11574 ft 334 kts 142°
2026-05-07 20:52 50.14738 8.18383 11507 ft 334 kts 142°
2026-05-07 20:52 50.12935 8.20648 11427 ft 333 kts 142°
2026-05-07 20:52 50.11132 8.22908 11354 ft 333 kts 142°
2026-05-07 20:52 50.09322 8.25172 11285 ft 332 kts 142°
2026-05-07 20:53 50.07521 8.27421 11204 ft 332 kts 142°
2026-05-07 20:53 50.05811 8.29833 11127 ft 332 kts 132°
2026-05-07 20:53 50.04451 8.32732 11055 ft 333 kts 122°
2026-05-07 20:53 50.03185 8.35750 10986 ft 332 kts 124°
2026-05-07 20:54 50.02082 8.38886 10903 ft 332 kts 108°
2026-05-07 20:54 50.01774 8.42435 10838 ft 332 kts 86°
2026-05-07 20:54 50.02227 8.45952 10753 ft 332 kts 74°
2026-05-07 20:54 50.02834 8.49333 10680 ft 317 kts 74°
2026-05-07 20:55 50.03411 8.52562 10606 ft 304 kts 74°
2026-05-07 20:55 50.03966 8.55695 10533 ft 298 kts 74°
2026-05-07 20:55 50.04512 8.58791 10462 ft 296 kts 74°
2026-05-07 20:55 50.05057 8.61872 10383 ft 295 kts 74°
2026-05-07 20:56 50.05623 8.64949 10321 ft 295 kts 72°
2026-05-07 20:56 50.06275 8.67966 10274 ft 294 kts 70°
2026-05-07 20:56 50.06977 8.70962 10187 ft 294 kts 69°
2026-05-07 20:56 50.07679 8.73899 10120 ft 293 kts 70°
2026-05-07 20:57 50.08044 8.77010 10047 ft 293 kts 91°
2026-05-07 20:57 50.07634 8.80083 9855 ft 291 kts 114°
2026-05-07 20:57 50.06503 8.82634 9584 ft 283 kts 137°
2026-05-07 20:57 50.04888 8.84284 9311 ft 276 kts 159°
2026-05-07 20:58 50.03027 8.84887 8954 ft 272 kts 181°
2026-05-07 20:58 50.01787 8.84679 8701 ft 270 kts 195°
2026-05-07 20:58 50.00068 8.83501 8324 ft 266 kts 216°
2026-05-07 20:58 49.98765 8.81503 7941 ft 263 kts 237°
2026-05-07 20:59 49.98002 8.78993 7576 ft 260 kts 256°
2026-05-07 20:59 49.97843 8.76222 7216 ft 258 kts 276°
2026-05-07 20:59 49.98088 8.73502 7029 ft 249 kts 278°
2026-05-07 20:59 49.98025 8.70888 6888 ft 239 kts 256°
2026-05-07 21:00 49.97429 8.68509 6620 ft 236 kts 249°
2026-05-07 21:00 49.96839 8.66136 6270 ft 234 kts 250°
2026-05-07 21:00 49.96279 8.63760 5924 ft 234 kts 251°
2026-05-07 21:00 49.95725 8.61389 5554 ft 233 kts 251°
2026-05-07 21:01 49.95171 8.59020 5215 ft 233 kts 251°
2026-05-07 21:01 49.94612 8.56662 4867 ft 233 kts 251°
2026-05-07 21:01 49.94049 8.54300 4500 ft 233 kts 250°
2026-05-07 21:01 49.93485 8.51946 4142 ft 233 kts 250°
2026-05-07 21:02 49.92923 8.49599 3999 ft 231 kts 250°
2026-05-07 21:02 49.92358 8.47256 4006 ft 233 kts 250°
2026-05-07 21:02 49.91787 8.44892 4009 ft 233 kts 250°
2026-05-07 21:02 49.91219 8.42542 4006 ft 233 kts 250°
2026-05-07 21:03 49.90649 8.40184 3991 ft 233 kts 250°
2026-05-07 21:03 49.90080 8.37831 3990 ft 233 kts 250°
2026-05-07 21:03 49.89510 8.35469 3987 ft 233 kts 250°
2026-05-07 21:03 49.88939 8.33118 3990 ft 233 kts 250°
2026-05-07 21:04 49.88361 8.30765 3993 ft 233 kts 250°
2026-05-07 21:04 49.87812 8.28398 3986 ft 233 kts 257°
2026-05-07 21:04 49.87874 8.25932 3986 ft 231 kts 291°
2026-05-07 21:04 49.88772 8.23924 3992 ft 229 kts 321°
2026-05-07 21:05 49.90156 8.22730 3989 ft 228 kts 345°
2026-05-07 21:05 49.91726 8.22684 3994 ft 228 kts 10°
2026-05-07 21:05 49.93259 8.23163 3989 ft 228 kts 12°
2026-05-07 21:05 49.94800 8.23849 3988 ft 228 kts 25°
2026-05-07 21:06 49.96042 8.25197 3984 ft 214 kts 45°
2026-05-07 21:06 49.96882 8.27058 3882 ft 205 kts 65°
2026-05-07 21:06 49.97383 8.29083 3656 ft 203 kts 69°
2026-05-07 21:06 49.97864 8.31075 3413 ft 189 kts 69°
2026-05-07 21:07 49.98308 8.32906 3166 ft 172 kts 69°
2026-05-07 21:07 49.98710 8.34570 2927 ft 158 kts 69°
2026-05-07 21:07 49.99083 8.36110 2723 ft 147 kts 69°
2026-05-07 21:07 49.99436 8.37570 2526 ft 141 kts 69°
2026-05-07 21:08 49.99779 8.38986 2330 ft 139 kts 69°
2026-05-07 21:08 50.00114 8.40383 2140 ft 137 kts 70°
2026-05-07 21:08 50.00440 8.41767 1963 ft 136 kts 69°
2026-05-07 21:08 50.00774 8.43128 1788 ft 135 kts 69°
2026-05-07 21:09 50.01102 8.44500 1591 ft 135 kts 70°
2026-05-07 21:09 50.01430 8.45874 1404 ft 136 kts 69°
2026-05-07 21:09 50.01761 8.47245 1216 ft 136 kts 69°
2026-05-07 21:09 50.02088 8.48628 1045 ft 136 kts 68°
2026-05-07 21:10 50.02424 8.50001 880 ft 136 kts 68°
2026-05-07 21:10 50.02751 8.51383 704 ft 136 kts 69°
2026-05-07 21:10 50.03076 8.52739 491 ft 135 kts 66°
2026-05-07 21:10 50.03409 8.54097 356 ft 132 kts 68°
2026-05-07 21:11 50.03683 8.55217 352 ft 86 kts 70°
2026-05-07 21:11 50.03832 8.55841 361 ft 45 kts 69°
2026-05-07 21:11 50.04034 8.56635 365 ft 29 kts 51°
2026-05-07 21:12 50.04149 8.56756 363 ft 18 kts 29°
2026-05-07 21:12 50.04192 8.56779 363 ft 0 kts 12°
2026-05-07 21:12 50.04236 8.56775 363 ft 11 kts 320°
2026-05-07 21:13 50.04219 8.56657 360 ft 12 kts 246°
2026-05-07 21:13 50.04187 8.56529 362 ft 13 kts 250°
2026-05-07 21:13 50.04150 8.56372 360 ft 10 kts 249°
2026-05-07 21:13 50.04170 8.56283 358 ft 9 kts 329°
2026-05-07 21:14 50.04225 8.56250 360 ft 3 kts 339°
2026-05-07 21:14 50.04229 8.56248 359 ft 0 kts 339°
2026-05-07 21:14 50.04230 8.56247 359 ft 2 kts 339°
2026-05-07 21:14 50.04287 8.56201 363 ft 11 kts 305°
2026-05-07 21:15 50.04296 8.56111 353 ft 8 kts 294°
2026-05-07 21:15 50.04341 8.56059 355 ft 7 kts 336°
2026-05-07 21:15 50.04410 8.56035 358 ft 14 kts 12°
2026-05-07 21:15 50.04462 8.56157 361 ft 15 kts 70°
2026-05-07 21:16 50.04496 8.56303 359 ft 12 kts 70°
2026-05-07 21:16 50.04538 8.56428 362 ft 14 kts 40°
2026-05-07 21:16 50.04630 8.56498 363 ft 16 kts 25°
2026-05-07 21:16 50.04707 8.56567 364 ft 13 kts 43°
2026-05-07 21:17 50.04771 8.56668 366 ft 13 kts 29°
2026-05-07 21:17 50.04800 8.56712 363 ft 4 kts 92°
2026-05-07 21:17 50.04790 8.56754 361 ft 1 kts 113°
2026-05-07 21:17 50.04786 8.56767 365 ft 1 kts 114°
2026-05-07 21:18 50.04785 8.56771 364 ft 0 kts 114°